Wind_Speed
8 8 7 7 6 6 5 5 4 4 3 3 3 2 2 3 3 3 3 4 4 5 5 6 6 6 6 6 6 6 6 6 7 6 6 6 5 5 5 5 4 4 3 1 5 7 5 4 2 2 1 4 2 3 2 5 6 10 12 12 12 9 9 9 8 7 5 4 3 3 3 3 3 2 2 2 2 2 1 1 2 2 3 2 3 3 2 3
7 7 7 6 6 5 4 4 3 3 3 2 2 2 2 2 2 2 3 3 4 4 5 6 6 6 6 6 7 7 6 7 7 7 7 6 5 5 5 5 4 3 3 1 4 7 5 4 1 2 3 4 3 2 3 5 6 10 12 13 12 9 10 9 9 8 6 5 4 4 3 3 3 3 3 3 3 2 2 2 2 2 2 2 3 3 2 3
6 6 5 5 5 4 4 3 3 2 2 2 2 1 1 1 1 1 2 2 3 3 4 5 6 6 7 7 7 7 7 8 8 7 7 7 5 5 5 5 5 4 3 2 3 5 5 5 2 3 7 4 3 3 4 5 5 10 12 13 12 10 11 9 9 10 8 6 5 5 4 4 3 3 3 3 3 2 3 2 2 1 2 2 2 4 3 3
4 4 4 3 3 3 3 3 2 2 1 1 1 1 1 1 1 1 1 1 2 2 3 4 5 6 7 7 8 8 8 8 9 7 7 7 6 5 5 4 4 4 3 3 2 3 4 5 3 1 5 4 3 8 3 3 5 10 13 12 12 12 12 10 9 10 9 6 6 6 5 5 4 3 3 3 3 3 3 2 2 2 2 2 2 3 3 4
2 2 2 1 1 1 2 2 2 2 1 1 1 1 1 1 1 1 1 2 2 2 3 3 4 5 6 7 8 9 8 9 10 9 8 7 7 6 5 4 4 4 3 3 2 2 2 4 5 4 4 3 6 9 5 1 4 8 13 11 10 12 12 10 9 8 8 5 5 5 5 5 5 4 3 3 3 2 2 2 2 3 2 2 2 3 3 4
4 3 3 3 2 1 1 1 2 3 3 2 2 2 2 2 2 2 2 3 3 3 3 4 4 5 5 6 7 9 9 10 10 10 9 8 7 7 6 5 4 3 3 2 2 1 1 4 6 6 5 4 7 6 5 5 3 6 12 11 8 9 10 10 10 8 7 5 5 5 5 4 5 5 4 3 2 2 2 2 2 3 2 3 3 3 3 4
6 6 5 5 5 4 4 3 3 3 4 4 4 4 3 3 3 3 3 4 4 4 4 4 5 5 5 6 6 8 9 10 10 11 10 9 8 7 6 5 4 3 3 3 1 2 1 2 4 4 6 6 5 4 7 9 2 4 8 11 10 9 9 8 8 8 8 7 7 6 6 5 5 5 3 3 2 1 2 2 2 2 2 3 3 3 4 4
8 8 8 7 7 7 6 6 5 5 5 5 5 5 5 5 4 4 4 5 5 5 6 6 5 6 6 6 6 7 8 9 10 11 11 10 9 7 7 5 4 4 3 3 1 2 1 2 4 4 5 5 4 6 9 9 4 1 3 7 10 9 8 7 6 7 7 8 9 8 7 6 5 5 3 3 3 2 2 2 1 1 2 2 3 3 4 4
10 10 10 9 9 9 8 8 7 7 7 7 6 6 6 6 6 6 6 6 6 6 7 7 7 7 6 6 6 7 8 8 10 11 11 11 9 8 7 6 6 4 4 2 1 1 2 3 4 5 5 4 2 5 7 6 4 2 2 4 8 7 6 6 6 7 7 8 8 6 6 5 5 5 3 3 3 3 2 2 1 1 2 2 2 3 3 4
11 12 12 11 11 11 10 10 9 9 9 9 8 8 7 7 7 7 7 7 7 7 7 8 8 8 7 7 7 7 7 8 9 10 11 11 10 9 8 7 7 6 4 3 2 1 2 4 4 4 6 6 4 2 6 5 4 2 2 2 6 6 5 6 6 8 8 7 7 4 4 6 5 5 4 3 4 4 3 2 1 2 2 2 3 2 3 3
12 13 13 13 13 12 12 11 11 11 10 10 10 10 9 9 8 8 8 8 8 8 8 8 8 8 8 8 8 8 7 7 8 9 11 11 11 10 9 8 7 7 5 4 3 2 3 4 3 3 5 6 4 3 4 3 3 2 3 2 2 4 5 6 7 8 8 7 5 3 4 7 7 6 5 4 5 5 5 4 2 2 2 2 3 2 2 3
13 14 14 14 14 14 13 13 12 12 12 12 12 12 11 11 10 9 9 9 9 9 9 9 9 9 9 9 9 9 8 8 8 8 10 11 11 10 9 9 8 7 6 4 4 5 4 3 3 4 4 4 4 5 4 2 3 3 3 4 3 3 5 6 7 7 7 6 4 3 3 5 4 5 5 5 6 5 4 4 3 3 2 2 2 2 2 3
13 14 15 15 15 15 14 14 14 13 13 13 13 13 13 12 11 11 11 10 10 10 10 10 10 10 9 9 9 10 10 9 8 8 9 10 10 10 9 9 8 8 7 5 5 5 5 4 3 3 4 4 4 4 4 2 3 3 2 3 3 2 3 5 6 6 6 6 4 3 3 4 5 5 4 5 6 6 5 5 5 4 2 2 1 1 1 1
13 14 15 15 16 15 15 15 15 15 15 15 15 15 14 14 13 12 12 12 12 11 11 11 11 11 10 10 10 11 10 10 9 8 8 9 10 10 10 9 9 8 8 7 6 6 5 4 3 4 5 5 4 4 5 3 3 4 3 3 4 2 2 2 3 5 6 5 4 4 3 1 5 5 3 3 6 8 7 6 5 4 2 2 2 1 1 1
14 15 15 16 16 16 16 16 16 16 16 16 16 16 16 15 15 14 14 13 13 13 13 13 13 13 12 11 11 11 11 11 11 9 8 9 9 9 10 9 9 9 8 7 7 6 6 5 5 4 4 5 5 5 6 5 5 5 2 1 2 3 4 3 2 4 6 4 3 4 3 2 2 4 3 2 5 7 7 6 4 3 3 2 2 2 2 1
16 16 16 16 17 17 18 17 18 18 18 18 18 18 18 17 17 16 16 16 15 15 15 15 14 14 14 12 12 11 11 12 12 11 9 9 9 9 10 9 9 10 9 8 7 7 7 6 6 5 4 5 6 7 7 6 5 5 2 0 0 3 4 4 3 1 4 5 4 4 4 4 5 4 4 2 2 5 6 6 4 3 3 2 1 2 2 2
17 17 17 18 18 19 19 19 20 20 20 20 20 20 20 20 20 19 19 18 18 17 17 17 16 16 16 14 14 13 13 13 13 12 11 9 9 9 9 9 9 10 10 9 7 6 7 6 7 7 6 7 7 8 8 8 6 4 5 4 4 5 5 5 4 2 2 4 5 4 4 5 6 4 4 2 0 2 4 5 5 3 3 3 2 2 2 2
18 19 19 19 20 20 20 21 22 22 22 22 22 23 23 23 22 22 22 21 20 20 20 20 18 19 18 16 16 15 14 14 15 14 12 11 10 9 9 9 9 10 10 10 8 6 6 7 8 7 8 8 8 7 9 9 7 6 4 3 4 6 5 6 6 4 4 5 6 6 3 3 6 5 3 3 2 1 2 4 5 4 3 3 4 3 2 2
19 20 20 21 21 22 22 23 23 25 25 25 25 25 25 25 25 25 24 23 23 23 23 22 20 21 20 18 18 16 14 16 16 15 13 12 11 9 10 9 9 10 11 10 9 7 6 7 7 7 8 7 5 6 9 8 8 7 5 3 5 5 5 7 8 8 8 7 8 8 4 2 5 6 5 4 1 2 1 3 5 4 3 4 4 3 3 4
21 21 22 22 23 23 24 24 25 26 26 27 27 27 28 27 27 28 25 25 25 25 26 23 22 24 23 21 19 16 17 18 16 16 15 13 13 11 10 10 10 10 10 10 10 7 6 8 7 8 8 5 3 6 10 10 9 8 8 7 7 5 4 8 10 9 10 10 8 8 7 4 5 7 7 5 2 2 3 2 3 3 4 5 4 3 4 5
22 22 22 23 24 24 25 25 26 27 28 29 29 30 30 28 29 29 26 27 28 27 27 25 24 25 25 23 20 18 20 19 17 17 16 15 14 12 11 10 9 10 10 10 11 8 6 6 7 8 8 4 5 9 10 10 7 8 10 9 6 5 5 6 8 9 9 10 9 9 8 5 6 7 8 7 3 3 5 5 3 4 6 6 4 4 3 4
24 23 24 24 25 25 25 26 26 27 28 29 30 31 31 29 31 31 29 29 29 28 28 27 26 26 25 24 22 20 21 20 19 19 17 17 16 14 12 11 10 10 9 10 11 10 7 6 6 6 9 7 9 9 11 15 11 9 8 8 5 4 6 7 5 7 9 10 10 11 9 7 7 7 7 8 6 4 5 6 6 5 6 5 4 5 3 3
24 24 25 25 26 27 27 27 27 28 28 29 30 30 30 30 31 31 30 29 28 28 27 26 26 26 26 25 23 21 22 21 20 20 18 17 17 16 14 11 11 11 9 10 11 10 9 5 5 7 9 10 5 11 22 24 19 12 7 7 6 3 3 6 7 11 14 13 9 9 10 10 10 7 7 9 8 7 6 6 7 7 7 6 5 5 5 4
22 23 23 24 25 26 28 28 29 30 30 30 31 31 31 30 30 31 31 30 28 27 26 26 26 25 25 25 24 22 23 23 21 21 19 18 19 18 15 12 12 11 10 10 10 11 10 1 4 12 12 9 11 17 19 19 14 8 6 7 6 4 1 7 15 19 19 14 10 9 8 10 13 10 8 8 8 8 8 7 8 7 8 8 6 6 7 5
20 21 21 21 22 23 25 26 27 28 28 29 30 31 31 31 31 32 32 32 30 27 29 29 26 24 24 25 24 21 23 24 21 22 19 18 20 18 17 15 13 12 11 12 11 11 11 5 8 16 13 9 12 11 12 15 7 3 10 13 6 2 3 9 18 16 14 11 8 7 4 5 12 11 7 7 9 8 7 8 9 9 9 9 8 7 8 6
18 19 20 20 20 20 22 24 25 25 25 26 26 27 27 27 29 29 30 31 29 28 31 29 25 25 24 25 23 22 24 23 21 22 20 19 21 19 18 17 14 14 13 14 14 12 11 10 14 15 11 12 12 8 10 10 4 5 11 15 8 4 3 7 12 13 13 13 11 7 5 5 7 11 10 7 9 9 8 8 9 9 10 10 10 8 8 6
16 18 19 18 18 18 19 21 24 24 24 24 24 25 24 25 25 25 27 26 26 29 28 24 23 23 23 25 24 21 23 23 22 23 20 18 20 20 19 18 16 15 15 15 15 13 12 13 15 14 12 13 11 10 11 8 6 8 9 4 3 7 12 7 6 10 12 13 11 8 9 8 6 11 14 10 9 10 10 10 9 9 10 11 10 10 9 8
17 18 18 18 17 17 17 18 20 22 22 23 24 24 23 24 24 24 25 23 26 31 26 20 21 22 25 28 25 20 22 25 23 23 21 18 21 21 19 20 17 16 17 16 15 15 14 14 15 15 14 12 10 11 10 9 9 9 3 2 7 13 21 11 7 12 11 10 9 8 11 11 9 11 14 15 13 12 11 11 11 10 10 10 11 11 9 9
18 19 19 19 18 18 17 17 18 18 19 21 22 23 23 24 24 24 25 23 26 31 26 21 21 22 25 27 24 21 25 27 22 24 24 20 22 22 19 20 18 18 19 17 16 14 13 15 17 17 15 13 13 11 8 7 6 11 4 12 16 19 17 11 9 8 8 11 13 11 9 9 11 9 8 15 16 11 11 10 10 11 9 10 12 12 10 8
19 19 20 20 19 19 19 19 18 17 18 19 20 21 22 22 23 23 24 23 24 28 26 22 21 21 23 24 22 22 26 26 22 28 29 22 23 24 20 21 20 19 20 18 17 13 14 18 15 13 15 13 12 12 10 10 12 13 11 14 14 12 8 6 9 12 14 16 14 11 9 8 10 5 3 12 15 11 11 8 8 9 9 11 13 12 12 9
18 19 20 20 20 21 21 20 20 19 19 19 19 20 20 21 22 21 21 20 20 25 26 24 23 20 20 22 22 21 25 24 24 32 32 23 24 24 22 23 22 20 21 20 17 15 19 21 15 12 15 13 11 13 14 14 20 23 16 9 4 5 7 8 12 12 11 12 9 6 8 10 11 7 4 11 15 13 13 12 11 10 10 13 13 12 13 11
17 18 19 20 20 21 21 21 21 20 20 19 19 19 19 21 20 17 18 16 15 21 24 24 24 17 16 21 21 20 23 23 26 34 33 25 25 26 24 24 24 22 20 18 16 16 21 22 18 16 15 14 13 14 15 16 21 24 17 9 6 7 13 12 11 10 8 11 9 5 9 13 12 9 6 10 16 15 14 13 12 10 11 13 13 12 13 12
17 17 18 19 19 20 21 21 22 21 21 20 20 20 20 20 17 13 15 14 13 20 20 20 23 18 13 18 20 21 21 21 27 30 29 27 26 27 26 24 26 23 16 15 15 15 19 20 19 18 16 15 15 15 16 15 16 19 18 13 9 9 15 12 6 7 8 8 7 9 11 10 8 7 8 13 16 16 15 13 11 11 13 13 12 12 12 11
17 17 18 18 19 19 20 21 21 21 22 22 21 21 20 17 15 13 13 11 10 18 21 20 23 22 16 15 17 20 19 19 25 27 24 26 26 26 25 23 25 21 15 17 16 12 14 19 19 15 14 15 14 15 15 13 13 16 17 16 12 10 14 10 3 8 10 9 9 11 12 9 7 9 13 15 15 15 15 16 14 12 13 15 14 14 14 12
18 18 18 19 19 19 19 20 20 20 21 22 21 22 19 15 14 12 10 10 10 13 21 22 22 22 19 17 17 19 19 17 21 25 23 22 23 23 23 21 22 20 18 19 15 10 11 15 19 16 14 15 14 15 16 16 14 17 16 16 14 11 12 7 3 6 8 12 13 11 10 10 7 11 16 16 16 16 14 17 18 13 13 15 14 16 15 13
19 19 19 19 19 19 20 19 20 20 20 21 20 20 17 14 16 13 11 15 16 18 20 19 18 17 14 17 16 16 19 16 18 23 22 20 20 20 21 20 20 19 19 18 12 8 10 9 17 22 21 17 11 14 19 17 15 16 16 12 13 14 11 4 8 10 10 12 14 10 9 11 9 12 17 15 15 16 14 16 18 15 14 14 14 15 14 12
20 20 19 20 20 20 20 20 21 21 21 21 19 17 16 16 18 16 16 22 24 25 24 16 15 15 11 12 15 15 17 16 19 24 22 21 21 20 20 19 18 18 17 18 15 13 14 9 13 22 22 20 14 14 16 17 21 18 12 12 10 14 13 8 12 19 16 13 14 12 11 10 9 14 18 14 13 15 13 15 16 14 13 14 16 16 14 12
20 21 21 21 22 22 21 22 23 23 23 23 20 18 18 17 19 21 21 24 24 26 27 19 15 15 10 10 14 16 18 17 20 23 22 21 21 20 18 16 17 17 16 18 18 16 14 9 13 21 17 18 18 15 15 18 23 20 10 9 10 10 13 15 20 22 16 12 14 13 12 12 12 16 19 17 16 15 14 14 13 13 13 14 15 15 13 13
23 23 25 25 25 24 24 24 24 24 24 23 22 21 20 18 21 24 25 27 23 23 27 21 15 14 11 13 16 15 17 18 17 19 20 18 18 20 19 15 17 18 17 20 22 19 14 13 15 19 12 14 20 16 15 17 21 22 17 13 12 13 12 12 15 14 11 11 13 11 10 13 17 18 17 17 16 14 14 13 13 15 16 15 13 12 13 14
25 25 26 27 27 27 27 26 26 25 25 23 23 23 22 22 23 21 21 24 21 21 27 23 21 19 14 16 19 15 15 19 18 18 19 17 15 16 17 16 18 19 19 18 22 22 17 16 15 12 9 16 20 14 14 15 17 21 23 20 16 16 12 9 13 13 9 11 13 13 13 15 19 19 15 13 12 11 12 13 14 16 15 12 10 12 14 15
27 26 26 27 27 27 27 27 26 26 25 24 24 24 25 26 26 25 25 23 16 19 26 26 26 27 22 21 23 20 17 19 19 19 19 18 17 15 15 16 19 19 20 20 21 26 22 18 15 11 10 14 16 12 14 16 15 16 20 19 14 12 12 10 10 9 8 9 11 15 17 17 19 20 17 13 12 12 13 14 15 15 13 11 11 11 13 13
29 27 27 27 27 27 27 27 27 27 26 25 25 25 27 29 27 27 29 24 18 22 27 27 27 30 31 26 24 25 24 20 18 18 19 20 19 16 14 14 18 20 19 20 19 24 25 21 17 14 13 13 14 13 12 18 19 17 19 18 14 13 14 14 10 9 11 9 11 17 18 17 18 20 21 18 14 14 14 13 14 13 12 13 11 10 10 11
29 28 27 27 28 28 28 29 28 28 27 26 25 26 28 30 27 26 27 26 24 25 26 27 27 29 32 30 26 27 27 24 22 19 18 20 19 17 16 15 16 20 20 19 18 20 24 25 22 17 16 15 12 13 14 15 20 22 20 18 15 13 14 16 12 11 15 14 17 21 17 14 17 19 19 18 17 16 15 14 14 12 11 12 11 9 8 9
30 30 28 27 28 28 28 28 28 28 28 25 25 27 28 29 27 26 27 27 27 26 26 28 28 29 32 31 29 29 29 28 26 22 22 23 19 18 18 16 15 18 20 19 18 18 20 24 24 19 15 15 14 14 18 18 17 21 20 17 17 16 15 12 9 12 17 17 19 21 17 15 17 17 14 15 16 14 12 13 15 12 11 12 11 10 8 9
29 30 30 28 26 26 27 28 27 27 27 26 26 27 26 27 27 26 26 26 27 28 28 30 31 32 33 33 32 32 33 34 30 24 25 27 23 20 19 16 16 16 18 19 19 17 18 21 23 23 19 15 15 18 20 20 18 19 23 20 20 21 19 15 12 14 19 19 21 24 20 14 13 15 15 14 12 10 11 16 17 12 10 13 13 10 9 11
28 29 30 29 28 27 26 27 27 26 26 26 27 27 27 28 29 27 26 26 27 27 27 29 31 32 32 32 32 32 34 37 36 29 27 28 27 24 20 17 17 18 21 24 22 18 17 18 21 26 25 19 16 21 22 16 15 17 20 22 19 18 20 20 17 19 22 21 20 22 20 17 15 16 16 13 11 11 13 17 16 11 9 11 12 11 10 12
29 28 28 29 29 28 27 27 26 24 24 25 26 27 27 28 28 27 28 28 27 27 26 27 28 30 31 30 29 31 33 36 37 35 33 30 28 26 22 18 16 21 26 29 26 20 15 17 20 22 25 26 24 23 19 14 12 14 15 18 18 17 20 22 19 21 26 25 20 19 18 19 20 18 14 11 11 11 13 15 14 11 10 9 9 11 12 11
29 29 28 27 29 28 27 27 26 25 24 24 26 26 26 27 26 27 30 31 29 27 25 25 26 28 29 29 30 33 35 35 36 35 34 31 29 30 28 22 21 27 27 28 30 27 18 18 20 18 20 25 26 21 17 14 15 14 14 16 16 15 17 18 16 18 23 22 20 20 18 18 20 19 15 13 13 12 12 14 14 13 14 10 7 9 11 10
29 29 29 28 29 29 28 28 27 25 25 24 25 25 25 26 27 28 30 31 30 29 26 24 24 27 30 32 35 36 36 36 34 33 33 33 32 35 32 25 21 26 27 30 33 30 22 19 19 15 15 20 21 19 18 15 14 15 16 17 16 14 15 16 12 12 18 21 19 19 17 16 17 17 16 16 15 14 13 14 16 18 17 13 9 10 11 10
30 30 31 31 31 31 30 29 27 25 24 24 24 24 24 25 26 27 29 29 29 29 28 25 25 29 33 35 35 35 36 37 35 34 37 37 36 37 36 30 22 22 25 31 31 29 26 23 20 18 17 19 20 19 19 18 16 16 17 17 16 15 16 17 16 17 21 20 18 17 15 13 15 18 16 14 12 14 14 14 16 19 18 15 14 13 13 12
32 33 34 34 33 32 30 28 25 23 23 24 22 21 22 23 23 24 26 27 27 28 28 26 27 31 32 33 33 33 36 39 38 38 39 37 36 37 39 39 34 27 25 27 29 28 27 26 25 22 21 20 19 18 20 20 17 17 17 17 16 16 18 21 21 21 22 20 17 17 14 10 15 18 15 12 13 14 13 12 15 18 17 16 16 14 14 14
35 35 36 35 33 32 29 26 24 22 22 21 20 21 22 23 24 23 24 26 27 28 29 28 29 29 27 28 32 35 37 38 37 37 35 34 33 35 38 40 37 31 26 25 26 27 25 26 25 23 22 21 19 18 19 20 21 22 20 17 17 18 19 19 18 20 21 18 16 16 15 14 17 18 15 15 18 16 12 11 14 15 15 16 17 14 14 15
Wind_Direction
110 112 113 115 116 117 117 118 118 114 111 104 97 91 82 74 65 58 51 44 37 32 30 30 27 22 19 13 7 4 1 360 359 1 4 8 11 9 9 11 5 7 9 189 195 203 202 197 210 189 62 22 180 232 255 205 212 195 194 202 199 208 210 197 186 173 163 165 163 162 149 127 100 96 122 116 111 111 109 85 106 131 124 128 139 135 130 125
109 109 109 109 110 111 112 113 111 107 105 98 92 85 77 73 68 59 51 46 39 34 32 31 28 25 20 14 9 4 1 358 356 356 2 4 6 7 5 10 8 5 0 328 208 216 210 208 213 106 12 0 171 247 245 206 214 207 207 209 208 214 209 199 189 173 157 157 151 152 150 134 115 112 128 119 119 132 119 131 142 139 131 132 142 141 150 158
115 112 108 105 103 100 100 99 98 94 87 85 82 77 70 66 61 52 45 36 33 30 29 29 28 27 22 19 15 11 5 357 354 355 359 358 360 2 0 5 6 9 355 313 230 227 221 224 217 67 9 18 133 335 271 214 223 219 221 217 211 212 205 197 192 178 158 151 148 151 156 147 133 128 131 121 122 125 120 151 177 167 151 142 159 152 161 186
134 127 119 112 103 92 83 75 74 72 65 63 56 55 41 36 25 10 4 355 5 8 14 19 21 23 21 22 20 16 9 358 358 358 356 355 354 354 354 359 359 10 3 315 256 222 227 245 246 285 341 10 30 357 346 224 256 226 220 223 217 207 199 192 191 177 154 152 153 157 166 155 153 158 149 141 136 124 128 169 199 194 179 159 183 170 165 188
189 178 168 154 127 97 68 49 38 28 18 9 1 357 348 344 337 327 318 318 324 328 342 353 2 11 13 18 19 16 11 5 5 1 356 351 347 350 350 350 349 6 7 324 276 225 229 257 278 288 285 341 360 3 26 320 288 231 215 221 214 193 187 187 191 179 152 155 166 167 174 161 164 176 168 161 140 114 141 162 186 197 192 174 190 196 180 184
234 233 234 238 246 266 312 343 357 0 354 344 333 328 322 315 313 309 306 306 305 308 316 323 335 347 355 6 12 13 13 10 7 2 358 349 345 346 341 344 344 350 350 334 293 241 234 249 277 310 293 321 347 355 13 346 308 224 215 213 204 185 184 187 188 183 160 168 191 180 181 176 173 181 184 192 170 113 139 150 175 194 197 184 187 208 197 192
249 249 249 253 257 265 279 295 315 329 336 336 327 320 315 312 309 305 304 301 302 303 305 309 317 325 333 346 357 7 9 9 6 2 359 353 346 342 337 339 332 321 320 330 306 249 239 247 261 293 293 313 337 333 353 350 336 199 213 206 206 205 199 193 187 184 170 185 209 189 189 197 181 181 183 190 187 148 141 147 173 178 193 191 181 201 200 198
254 254 254 256 257 261 267 278 293 303 315 322 321 315 310 312 309 305 304 302 303 300 301 304 305 311 317 326 339 353 0 3 3 1 359 355 350 343 334 326 316 311 307 313 306 252 212 227 237 231 270 304 326 333 356 1 354 223 229 203 205 214 203 196 199 202 190 199 215 199 198 213 200 199 184 176 191 179 166 159 176 170 186 193 174 191 197 193
255 256 256 257 258 260 263 268 278 289 298 305 311 311 306 304 304 304 303 302 303 301 300 299 300 304 307 312 321 335 347 354 357 359 359 353 350 345 333 318 307 303 300 295 259 245 213 244 254 218 240 273 273 340 358 9 359 340 306 230 215 224 215 207 212 224 226 225 232 218 204 213 220 227 204 195 209 192 184 164 160 179 186 198 180 181 196 193
254 255 256 258 259 260 260 263 269 278 287 294 300 304 303 298 297 299 299 302 302 301 299 297 297 298 299 303 308 318 329 339 348 354 354 351 348 343 333 317 307 308 301 282 239 219 232 241 257 222 225 242 216 310 343 358 359 349 347 265 224 228 230 237 237 241 253 255 256 249 229 227 225 233 230 219 211 193 192 172 163 193 183 196 191 189 211 203
255 254 255 256 258 258 258 259 263 271 279 285 291 296 299 296 294 293 294 298 299 300 299 298 298 295 296 297 300 305 312 325 335 344 349 349 346 342 334 321 312 311 294 272 255 245 246 236 246 235 228 247 247 268 305 339 345 341 18 16 254 247 243 245 251 254 258 256 250 234 238 239 213 211 245 239 205 201 198 179 168 190 181 190 194 201 220 220
253 253 254 254 256 256 256 256 259 266 273 278 284 288 292 293 292 292 292 294 296 298 299 300 300 297 296 295 296 298 300 311 321 331 341 345 345 342 335 323 315 310 291 273 263 245 246 242 242 245 229 246 268 270 272 294 313 331 11 6 354 290 261 250 245 252 254 245 232 205 227 250 214 201 237 237 209 207 205 186 167 178 188 179 184 204 212 223
252 251 252 254 255 255 254 254 256 262 268 273 277 281 285 286 287 289 290 292 293 295 298 299 300 299 297 294 291 291 293 301 309 318 329 339 344 340 334 325 315 310 299 281 265 250 245 240 240 247 231 224 242 256 248 237 278 298 21 6 353 322 281 263 243 241 247 255 246 216 222 233 222 212 213 221 216 208 209 201 173 163 181 171 162 209 201 217
254 250 250 251 253 253 252 252 254 259 264 268 273 276 278 279 280 283 285 288 289 291 294 295 298 298 297 295 290 291 292 294 299 304 316 331 338 338 335 324 314 309 303 291 273 260 248 235 233 235 225 211 204 240 243 216 255 290 350 339 304 305 325 296 251 236 239 265 272 249 271 222 212 225 210 198 213 208 207 209 185 157 157 157 156 161 148 178
259 253 250 249 249 250 251 252 255 258 261 265 270 273 274 275 276 277 280 282 285 286 289 291 294 295 295 295 291 291 290 288 292 294 302 319 330 335 331 322 315 308 302 298 282 269 255 236 230 232 237 220 201 219 244 240 233 251 309 356 292 300 321 334 304 250 243 270 297 272 300 354 271 249 236 195 209 213 201 198 195 165 156 148 143 150 158 186
261 258 254 251 249 248 249 251 254 258 260 263 267 270 271 272 273 275 277 278 280 282 285 286 288 290 291 290 290 289 287 284 285 288 292 304 318 328 327 321 314 305 302 300 289 274 259 240 226 226 233 222 214 221 238 254 250 249 274 102 27 313 315 335 353 317 264 270 289 293 293 312 318 285 243 213 196 214 200 197 209 201 197 189 158 158 172 194
261 260 257 255 253 251 251 251 254 256 259 262 264 267 268 269 271 272 274 275 277 279 281 281 283 285 285 286 288 285 282 281 281 282 284 290 304 318 323 319 310 305 301 297 296 281 262 245 227 218 218 217 221 234 244 252 253 253 262 258 273 297 301 301 316 0 325 284 275 297 309 299 312 304 254 256 206 197 190 205 215 214 237 244 282 280 209 203
263 261 259 257 256 254 254 254 256 257 258 260 261 263 265 267 269 271 272 274 276 278 277 277 280 279 281 284 281 278 280 279 277 276 277 280 290 305 315 315 310 304 298 299 301 287 266 248 235 225 226 222 213 232 254 256 257 261 266 275 279 287 287 278 288 303 312 305 286 293 331 321 320 332 301 284 340 37 151 210 226 220 247 269 304 303 260 263
266 264 262 260 258 257 256 256 257 259 260 261 262 263 263 265 267 269 271 274 276 275 273 276 277 275 276 275 273 278 280 275 273 274 274 274 277 293 307 308 308 304 301 300 296 289 272 251 241 232 233 234 225 245 265 258 254 262 264 269 261 270 287 277 281 286 288 295 291 297 309 305 318 327 310 288 317 344 196 200 228 227 240 265 293 309 282 289
269 268 267 265 263 262 260 259 260 261 262 263 264 265 265 266 268 268 271 273 271 271 274 276 273 271 272 272 273 277 273 270 273 273 271 269 270 280 295 301 305 304 299 295 293 290 273 255 242 227 222 228 248 272 283 268 253 258 258 251 247 251 278 282 286 292 297 300 295 299 298 287 303 307 305 303 285 290 277 218 223 251 265 264 276 296 288 296
271 270 270 269 268 266 265 264 263 263 264 264 265 266 267 269 269 270 270 269 269 271 273 273 269 268 271 272 272 268 266 269 271 270 269 266 264 270 281 292 300 301 297 291 289 286 277 265 250 237 218 175 54 8 323 289 274 266 251 248 256 257 264 278 294 299 303 307 296 288 289 284 289 294 303 306 287 271 281 276 261 260 269 270 276 285 289 297
272 271 271 271 270 270 269 267 266 266 265 265 266 266 268 269 269 270 270 269 271 270 270 270 268 267 268 270 268 263 265 267 266 266 265 262 261 263 271 286 295 296 295 286 285 288 282 262 249 241 211 166 59 4 272 247 251 262 247 251 256 233 261 275 290 310 302 299 296 290 287 279 277 290 297 296 291 270 270 282 278 264 268 268 259 270 284 282
276 274 273 272 271 271 270 269 268 267 267 267 267 268 269 269 269 270 270 269 270 270 270 269 266 264 265 266 265 264 263 262 263 263 261 260 259 259 264 279 287 293 296 282 278 282 279 285 315 291 229 198 182 229 238 242 253 266 246 245 258 224 277 291 299 323 309 290 281 277 280 283 280 282 282 283 293 293 283 280 275 270 275 266 251 268 280 279
281 279 277 275 273 273 271 271 269 268 268 268 268 269 269 269 270 270 271 269 268 270 270 266 265 265 265 264 263 262 261 261 260 259 259 257 255 256 260 268 277 289 294 278 268 270 271 354 357 287 261 242 233 226 239 252 256 279 269 253 262 238 10 322 297 304 303 289 274 269 280 291 283 273 270 275 281 288 291 291 284 277 275 267 258 272 279 287
286 284 282 279 277 275 274 274 272 271 270 269 269 269 269 270 270 270 271 270 268 267 266 265 265 267 265 265 264 261 259 259 259 258 256 252 252 252 254 259 271 281 285 281 271 264 261 204 210 249 252 259 260 242 247 253 244 329 296 288 293 135 86 297 285 298 311 297 275 271 283 286 283 277 265 262 264 272 281 287 291 283 276 272 265 266 273 286
290 288 285 283 281 277 274 273 272 272 272 272 272 271 272 271 270 272 271 271 271 267 264 265 265 265 265 265 263 259 257 258 258 258 252 248 250 250 252 257 268 275 279 280 273 262 258 245 243 252 253 257 267 256 243 244 211 173 236 267 307 41 156 249 296 334 331 299 272 266 258 239 275 280 265 252 253 260 261 266 278 280 279 276 269 266 270 284
294 291 290 290 289 284 278 274 272 271 271 272 273 273 273 273 273 273 272 276 276 268 265 266 265 264 263 260 257 256 257 256 253 253 251 247 248 248 250 257 263 270 274 276 278 271 256 251 258 265 260 258 262 253 241 227 198 193 197 170 57 292 253 231 309 297 267 271 278 279 270 249 247 265 271 272 254 252 256 259 268 272 276 277 269 266 268 275
295 294 294 295 296 294 288 281 276 274 272 271 272 272 272 272 273 272 273 277 275 272 273 273 267 262 258 257 257 254 254 254 252 252 250 244 246 245 246 255 260 265 269 271 274 271 263 255 255 258 257 258 257 246 239 224 189 169 182 125 151 236 252 237 247 256 254 284 296 279 270 266 258 258 274 281 265 256 262 270 278 273 275 280 272 264 259 263
295 295 296 296 298 296 294 290 284 282 277 273 272 272 271 272 272 272 273 273 273 277 281 276 268 261 260 261 260 252 252 256 256 255 248 237 242 245 243 252 258 262 269 272 268 265 265 257 248 250 255 256 258 245 221 228 190 139 190 251 213 214 233 220 223 248 255 262 258 253 259 269 271 273 286 282 273 271 276 278 277 276 281 282 276 270 257 251
297 296 295 295 295 293 292 290 288 286 282 278 276 273 272 271 270 271 273 272 275 280 281 279 272 262 261 262 259 250 248 253 254 253 248 236 241 247 246 251 255 261 268 271 268 255 243 249 251 253 258 256 256 244 214 208 204 182 208 242 227 225 237 220 238 234 216 226 241 265 285 280 276 279 268 272 272 272 278 272 250 259 281 278 274 273 261 250
299 298 296 294 293 291 290 289 287 285 281 280 278 275 274 270 269 271 272 274 278 277 279 278 270 264 262 259 256 249 246 245 244 251 253 244 243 249 250 253 257 260 265 267 268 253 242 254 263 256 255 258 248 238 231 216 202 199 214 228 209 255 252 231 250 245 224 237 244 264 279 265 265 263 245 271 277 271 267 264 250 245 257 266 270 269 262 259
303 301 298 296 293 291 289 288 286 284 281 279 275 274 273 269 271 273 271 272 273 273 278 280 275 270 262 258 256 250 247 242 239 249 256 252 247 248 248 254 257 257 261 266 263 254 249 254 258 252 252 258 253 236 230 226 211 206 219 219 174 232 252 239 246 253 247 254 254 251 248 244 256 268 261 270 276 276 272 272 278 273 258 258 264 258 250 253
305 303 300 298 295 292 289 288 286 284 282 279 274 272 270 271 274 270 262 263 266 268 270 276 280 278 262 259 259 252 247 242 243 248 254 253 249 248 246 247 252 251 250 251 250 251 256 258 254 252 252 251 252 244 229 226 225 217 222 223 184 214 252 247 255 289 289 281 281 274 260 253 262 266 251 251 261 275 285 285 288 288 279 274 274 264 246 241
302 301 300 298 296 293 291 288 286 284 281 279 276 272 270 272 271 259 251 245 252 272 273 265 267 274 272 262 258 257 251 241 246 251 251 250 249 249 246 241 245 248 231 226 233 237 254 265 259 254 259 250 241 243 228 211 230 233 224 219 199 216 246 242 289 326 313 301 279 258 260 264 244 243 255 260 268 280 287 286 279 275 284 285 282 278 263 250
298 297 297 296 295 294 292 289 287 285 281 278 275 273 273 271 258 250 250 236 216 248 268 264 259 266 272 264 258 259 257 246 246 252 252 250 247 247 248 242 239 239 226 220 226 231 238 263 269 266 269 253 232 237 225 194 214 251 240 211 200 223 239 234 280 294 285 292 289 276 283 291 259 245 256 264 276 284 285 287 286 282 281 279 274 273 270 265
293 293 293 293 293 293 291 289 287 286 284 280 277 275 273 259 244 235 234 235 218 217 242 265 269 264 262 264 263 257 254 247 239 246 250 248 247 242 242 243 235 231 226 211 201 224 236 260 272 266 268 263 234 231 234 205 197 240 254 227 200 212 233 301 325 292 269 272 285 292 290 292 282 257 255 258 270 278 280 282 286 286 280 278 275 268 263 261
291 290 290 291 292 290 288 288 285 284 283 281 281 277 268 254 242 231 228 238 238 230 234 248 262 260 249 253 261 253 246 236 229 240 246 245 250 244 236 241 237 230 222 202 189 211 225 233 257 255 260 268 248 219 232 221 194 200 240 259 229 209 222 260 272 266 262 250 252 251 242 253 270 264 264 268 270 271 272 274 278 281 278 279 276 268 264 261
291 290 290 290 291 288 286 285 283 281 279 279 281 275 265 255 239 232 243 256 252 241 240 237 234 246 237 229 249 250 243 236 229 238 244 244 251 250 239 234 234 232 217 198 196 210 207 199 248 258 260 265 253 220 217 221 200 184 191 245 250 226 225 234 236 240 251 262 263 258 250 248 244 251 263 271 272 272 272 271 271 268 262 261 263 263 265 264
290 289 289 289 288 286 285 284 281 279 278 276 276 271 265 258 247 243 254 265 260 246 247 242 225 229 224 217 234 242 240 238 231 235 243 242 243 251 250 232 221 229 223 199 195 203 191 177 231 263 262 252 252 230 211 216 203 188 180 192 222 228 231 250 253 240 231 256 275 274 262 252 239 243 257 265 269 275 276 274 266 261 259 259 263 267 261 258
293 291 290 288 287 285 283 283 280 278 277 275 273 271 265 257 250 247 255 262 256 242 243 237 217 215 216 210 214 220 230 232 225 225 235 237 229 234 242 227 209 221 236 217 198 202 196 177 201 238 225 227 243 229 203 211 210 200 190 184 197 204 202 234 262 264 243 236 250 250 241 245 254 258 257 259 275 283 278 274 264 262 267 267 267 266 260 257
299 296 293 290 288 286 283 281 279 277 277 275 272 269 265 261 253 250 259 266 255 236 239 236 221 219 223 212 202 203 214 223 225 221 222 230 227 219 229 223 197 202 237 240 210 203 203 186 187 217 227 232 245 232 196 199 214 220 208 199 199 194 190 210 239 263 264 244 257 267 259 254 260 261 252 256 282 281 273 273 267 267 272 272 269 266 264 264
302 299 296 292 288 285 283 281 279 278 277 275 273 268 264 265 263 261 265 266 247 234 238 237 229 228 235 233 219 211 207 205 214 219 219 225 227 226 240 231 187 184 222 241 223 209 208 198 187 207 231 236 246 247 215 194 198 215 226 226 223 213 209 211 224 262 267 247 249 263 268 267 262 257 255 264 281 283 283 284 279 275 272 272 275 271 267 267
304 302 299 294 290 287 284 282 281 280 279 276 274 271 266 265 265 264 264 261 248 241 239 238 233 230 234 237 233 227 220 206 197 202 213 223 227 230 238 233 202 191 207 226 228 219 214 203 188 198 224 224 229 257 254 218 196 198 215 231 233 235 231 215 210 248 262 254 250 252 251 252 256 259 265 274 282 288 296 295 288 287 285 282 284 279 268 260
306 304 301 296 292 290 287 285 284 281 279 276 272 270 268 268 267 263 261 260 255 247 239 236 234 231 231 232 228 226 225 216 203 198 204 208 215 227 233 240 231 209 205 216 223 226 225 212 197 199 214 206 201 231 247 239 212 192 198 221 232 235 246 242 219 232 248 254 258 254 240 232 246 260 269 276 280 286 296 292 285 289 292 285 280 281 277 260
308 306 303 299 294 290 288 286 284 281 280 277 272 268 266 266 266 264 262 261 258 252 244 237 234 232 232 230 226 221 219 218 213 209 210 205 202 213 221 232 233 209 197 208 210 213 222 219 210 204 195 187 195 210 221 232 231 204 192 206 225 222 222 235 246 250 256 263 262 253 247 249 260 266 264 261 264 273 279 278 279 282 285 280 276 275 274 263
312 309 307 305 300 295 293 289 285 282 280 276 272 268 265 262 261 262 262 260 258 255 250 243 240 237 234 232 230 226 222 223 219 215 217 211 203 208 205 204 222 213 196 201 203 205 213 217 222 216 196 185 200 209 208 215 237 232 207 201 215 220 213 215 228 244 248 253 260 257 253 260 267 265 264 256 245 247 257 265 272 277 277 278 276 271 264 258
316 313 310 308 305 303 300 296 292 288 283 277 272 269 265 263 261 259 258 258 257 254 248 243 241 239 237 234 232 228 225 228 227 222 221 215 206 210 200 185 215 223 205 199 195 194 208 220 229 230 210 196 199 209 211 200 210 240 234 213 212 218 217 212 215 234 241 242 252 261 259 258 258 256 259 258 249 248 254 264 274 280 276 274 274 276 272 263
319 316 313 310 308 306 303 299 297 294 288 281 276 272 268 264 260 255 253 253 252 249 245 242 239 236 236 234 232 229 224 226 230 227 227 223 213 211 203 191 216 227 212 201 193 188 199 212 215 226 225 210 203 209 221 212 200 219 236 232 228 225 227 227 219 231 249 252 250 252 254 255 256 259 261 259 258 258 259 270 278 279 280 287 286 280 278 271
322 320 317 314 310 307 304 300 297 292 287 282 277 273 268 263 257 253 251 250 248 245 242 240 237 232 231 230 230 230 226 224 226 223 222 223 218 214 207 200 221 233 216 201 199 200 207 207 202 210 227 228 220 213 222 225 213 217 223 224 232 234 241 260 259 236 250 263 260 251 248 246 251 258 260 258 261 263 259 262 270 276 284 292 285 270 266 267
325 322 319 316 312 308 305 301 297 292 285 279 274 271 266 261 256 250 248 247 246 245 243 240 237 232 230 229 228 229 228 225 224 221 218 218 216 213 206 198 210 231 220 205 204 213 221 219 214 212 214 227 233 225 224 225 220 224 221 211 219 230 225 233 241 234 238 251 259 255 246 238 243 246 249 258 267 268 266 264 269 278 284 286 286 285 281 278
325 323 320 317 314 310 307 303 298 290 282 277 274 269 263 258 254 249 246 243 243 244 243 240 239 237 234 235 232 229 230 229 225 224 222 220 218 215 208 203 206 215 218 213 209 215 226 229 226 224 220 220 225 227 228 227 226 231 226 205 206 223 218 210 219 235 242 238 242 256 257 246 248 251 253 263 261 260 274 284 281 279 280 283 291 299 299 297
326 325 322 320 316 312 309 306 299 290 285 280 273 266 259 254 251 247 242 239 237 239 240 238 238 238 235 236 234 229 229 230 229 229 228 224 224 223 217 215 217 218 215 212 207 208 223 230 223 223 228 226 221 221 224 228 232 236 232 215 203 214 224 219 215 233 247 240 231 251 267 260 257 262 265 265 263 260 264 272 275 276 279 282 286 292 299 301
Height
5903 5903 5903 5903 5903 5903 5903 5903 5903 5903 5902 5902 5902 5902 5901 5901 5901 5900 5900 5900 5899 5899 5898 5898 5897 5897 5896 5895 5895 5894 5893 5893 5892 5892 5891 5891 5891 5890 5890 5890 5890 5889 5889 5888 5888 5888 5888 5888 5888 5887 5885 5885 5887 5888 5887 5889 5889 5888 5889 5889 5890 5891 5891 5890 5890 5891 5892 5892 5892 5893 5893 5893 5893 5893 5893 5893 5893 5892 5892 5892 5891 5891 5890 5891 5890 5891 5891 5891
5904 5904 5904 5904 5904 5904 5903 5903 5903 5903 5903 5903 5902 5902 5902 5901 5901 5901 5900 5900 5900 5899 5899 5898 5898 5897 5896 5896 5895 5894 5894 5893 5892 5892 5891 5891 5891 5890 5890 5890 5890 5889 5889 5888 5888 5888 5887 5888 5888 5886 5885 5886 5887 5887 5887 5887 5887 5887 5888 5889 5891 5891 5890 5891 5892 5891 5891 5892 5892 5893 5893 5893 5894 5894 5894 5894 5893 5893 5892 5892 5892 5891 5891 5891 5891 5891 5892 5892
5904 5904 5904 5904 5904 5904 5904 5904 5904 5903 5903 5903 5902 5902 5902 5902 5901 5901 5901 5900 5900 5899 5899 5898 5898 5897 5896 5896 5895 5894 5894 5893 5893 5892 5892 5891 5891 5891 5890 5890 5890 5889 5889 5888 5888 5887 5887 5887 5887 5887 5886 5887 5887 5887 5886 5886 5887 5887 5887 5889 5891 5891 5891 5891 5892 5892 5891 5892 5892 5893 5893 5894 5894 5894 5894 5894 5894 5894 5893 5893 5892 5892 5892 5892 5892 5892 5892 5893
5905 5905 5905 5905 5905 5904 5904 5904 5904 5904 5903 5903 5903 5902 5902 5902 5901 5901 5901 5900 5900 5900 5899 5899 5898 5898 5897 5896 5895 5895 5894 5893 5893 5892 5892 5891 5891 5891 5890 5890 5890 5889 5889 5888 5888 5887 5887 5887 5887 5887 5888 5888 5887 5887 5887 5887 5888 5888 5887 5889 5890 5891 5891 5891 5893 5892 5890 5891 5892 5893 5893 5893 5894 5894 5894 5895 5895 5895 5894 5894 5893 5893 5893 5892 5893 5893 5893 5893
5905 5905 5905 5905 5905 5905 5904 5904 5904 5904 5903 5903 5903 5902 5902 5902 5901 5901 5901 5900 5900 5900 5899 5899 5898 5898 5897 5896 5896 5895 5894 5893 5893 5892 5892 5891 5891 5891 5890 5890 5890 5889 5889 5888 5888 5887 5888 5888 5887 5886 5887 5887 5887 5887 5887 5888 5889 5888 5888 5889 5889 5890 5891 5892 5893 5891 5890 5891 5892 5892 5893 5893 5894 5894 5895 5895 5895 5895 5895 5895 5894 5894 5893 5893 5893 5893 5894 5894
5905 5905 5905 5905 5905 5905 5904 5904 5904 5904 5903 5903 5903 5902 5902 5902 5901 5901 5900 5900 5900 5899 5899 5899 5898 5898 5897 5897 5896 5895 5894 5894 5893 5892 5892 5891 5891 5891 5890 5890 5890 5889 5889 5889 5888 5888 5888 5888 5888 5886 5886 5887 5887 5886 5887 5888 5888 5887 5887 5888 5889 5890 5891 5892 5892 5890 5890 5891 5891 5893 5893 5893 5894 5894 5895 5895 5895 5895 5895 5895 5895 5894 5894 5894 5894 5894 5895 5895
5904 5904 5904 5904 5904 5904 5904 5904 5904 5904 5903 5903 5903 5902 5902 5901 5901 5901 5900 5900 5899 5899 5899 5898 5898 5898 5897 5897 5896 5895 5895 5894 5893 5892 5892 5891 5891 5890 5890 5890 5889 5889 5889 5889 5888 5888 5888 5888 5889 5888 5886 5888 5888 5887 5887 5887 5887 5887 5887 5888 5889 5890 5890 5891 5891 5889 5891 5891 5891 5893 5893 5893 5894 5895 5895 5895 5895 5896 5896 5895 5895 5895 5895 5895 5894 5895 5895 5895
5904 5904 5904 5904 5904 5904 5904 5904 5904 5903 5903 5903 5902 5902 5902 5901 5901 5900 5900 5899 5899 5899 5898 5898 5898 5897 5897 5896 5896 5896 5895 5894 5893 5892 5892 5891 5891 5890 5890 5890 5889 5889 5889 5889 5888 5888 5888 5889 5889 5889 5887 5888 5888 5887 5888 5888 5887 5887 5887 5888 5889 5890 5889 5890 5890 5890 5891 5892 5890 5892 5893 5893 5894 5895 5895 5895 5896 5896 5896 5896 5895 5895 5895 5895 5895 5895 5896 5896
5903 5903 5903 5903 5903 5903 5903 5903 5903 5903 5903 5902 5902 5902 5901 5901 5900 5900 5900 5899 5899 5898 5898 5898 5897 5897 5896 5896 5896 5895 5895 5894 5893 5893 5892 5891 5890 5890 5890 5889 5889 5889 5889 5889 5888 5888 5888 5888 5889 5889 5889 5889 5889 5888 5889 5889 5888 5888 5888 5889 5890 5890 5890 5891 5891 5890 5892 5892 5892 5894 5895 5895 5895 5895 5895 5895 5896 5896 5896 5896 5896 5896 5896 5896 5896 5896 5896 5896
5902 5902 5902 5902 5902 5902 5902 5902 5902 5902 5902 5901 5901 5901 5901 5900 5900 5900 5899 5899 5898 5898 5897 5897 5897 5896 5896 5896 5895 5895 5895 5894 5894 5893 5892 5891 5890 5890 5889 5889 5888 5889 5889 5889 5889 5888 5888 5888 5888 5889 5889 5889 5889 5889 5889 5889 5889 5888 5888 5889 5890 5891 5891 5891 5892 5891 5892 5893 5894 5895 5895 5895 5895 5895 5895 5895 5895 5895 5895 5896 5896 5896 5896 5896 5896 5896 5896 5896
5901 5901 5901 5901 5901 5901 5901 5901 5901 5901 5901 5900 5900 5900 5900 5900 5899 5899 5899 5898 5898 5897 5897 5896 5896 5896 5895 5895 5895 5894 5894 5894 5893 5893 5892 5891 5890 5890 5889 5888 5888 5888 5888 5888 5888 5888 5888 5888 5888 5888 5888 5888 5889 5890 5889 5889 5889 5889 5889 5890 5890 5891 5891 5891 5892 5892 5892 5893 5894 5895 5895 5894 5894 5894 5895 5895 5895 5895 5895 5896 5896 5896 5896 5897 5897 5897 5897 5897
5900 5900 5900 5900 5900 5900 5900 5900 5900 5900 5899 5899 5899 5899 5899 5899 5898 5898 5898 5897 5897 5897 5896 5896 5895 5895 5895 5894 5894 5894 5893 5893 5893 5893 5892 5891 5890 5889 5889 5888 5888 5888 5888 5888 5888 5888 5888 5888 5888 5888 5888 5888 5888 5889 5890 5889 5889 5889 5890 5891 5891 5891 5891 5891 5892 5892 5892 5893 5893 5895 5895 5893 5893 5893 5894 5894 5895 5895 5896 5896 5896 5896 5897 5897 5897 5897 5897 5897
5899 5899 5899 5899 5898 5898 5899 5899 5899 5898 5898 5898 5898 5897 5897 5897 5897 5897 5897 5896 5896 5896 5895 5895 5895 5894 5894 5893 5893 5893 5892 5892 5892 5892 5892 5891 5890 5889 5888 5888 5887 5887 5887 5887 5887 5888 5888 5888 5888 5888 5888 5889 5889 5889 5889 5889 5888 5889 5889 5890 5891 5891 5891 5891 5892 5892 5892 5893 5893 5895 5896 5894 5893 5893 5894 5895 5895 5895 5895 5896 5896 5896 5897 5897 5897 5897 5897 5897
5897 5897 5897 5897 5897 5897 5897 5897 5897 5897 5897 5896 5896 5896 5896 5896 5896 5896 5895 5895 5895 5895 5894 5894 5894 5893 5893 5893 5892 5892 5892 5891 5891 5891 5891 5890 5890 5889 5888 5888 5887 5886 5886 5886 5887 5887 5887 5888 5888 5888 5888 5889 5889 5888 5888 5889 5890 5890 5889 5889 5890 5891 5891 5891 5892 5893 5893 5893 5893 5895 5896 5895 5893 5893 5895 5896 5895 5894 5895 5896 5896 5896 5897 5897 5897 5897 5897 5897
5896 5896 5896 5896 5895 5895 5895 5896 5895 5895 5895 5895 5895 5895 5894 5894 5894 5894 5894 5894 5894 5893 5893 5893 5893 5892 5892 5892 5891 5891 5891 5891 5891 5891 5890 5890 5889 5889 5888 5887 5887 5886 5886 5886 5886 5886 5887 5888 5888 5888 5888 5888 5889 5889 5888 5889 5890 5890 5891 5891 5890 5891 5891 5891 5892 5893 5893 5893 5893 5894 5894 5894 5894 5893 5895 5896 5894 5894 5895 5896 5896 5896 5897 5897 5897 5897 5897 5897
5894 5894 5894 5894 5894 5894 5894 5894 5894 5893 5893 5893 5893 5893 5893 5892 5892 5892 5892 5892 5892 5892 5892 5892 5891 5891 5891 5891 5890 5890 5890 5890 5890 5890 5890 5889 5889 5888 5888 5887 5886 5886 5885 5886 5886 5886 5886 5887 5888 5888 5888 5888 5889 5888 5888 5889 5890 5890 5891 5891 5891 5892 5891 5891 5893 5893 5893 5893 5893 5894 5894 5894 5895 5894 5894 5896 5894 5894 5895 5895 5896 5896 5897 5898 5897 5897 5897 5897
5892 5892 5892 5892 5892 5892 5892 5892 5891 5891 5891 5891 5891 5891 5891 5890 5890 5890 5890 5890 5890 5890 5890 5890 5890 5889 5889 5889 5889 5889 5889 5889 5888 5889 5889 5888 5888 5888 5887 5886 5886 5885 5885 5885 5885 5886 5886 5886 5887 5887 5887 5888 5888 5888 5888 5889 5890 5891 5891 5891 5891 5892 5891 5891 5892 5893 5893 5893 5893 5894 5895 5895 5895 5894 5893 5895 5895 5894 5895 5894 5895 5896 5897 5898 5897 5897 5898 5898
5890 5889 5889 5889 5889 5889 5889 5889 5889 5889 5889 5889 5889 5888 5888 5888 5888 5888 5888 5888 5888 5888 5888 5888 5888 5888 5887 5888 5887 5887 5888 5887 5887 5887 5887 5887 5887 5887 5887 5886 5885 5885 5884 5884 5885 5885 5885 5886 5886 5886 5887 5888 5888 5889 5888 5889 5890 5890 5891 5891 5891 5891 5891 5891 5891 5893 5893 5893 5893 5893 5895 5895 5894 5893 5892 5894 5894 5894 5894 5894 5894 5896 5896 5897 5897 5897 5898 5898
5887 5887 5887 5887 5887 5887 5887 5887 5887 5886 5886 5886 5886 5886 5886 5886 5886 5885 5886 5886 5886 5886 5885 5886 5886 5886 5885 5886 5885 5886 5886 5886 5885 5886 5886 5886 5886 5886 5886 5885 5885 5884 5884 5884 5884 5884 5885 5885 5885 5886 5887 5887 5888 5889 5889 5889 5889 5890 5890 5891 5891 5891 5891 5890 5891 5892 5892 5892 5892 5892 5894 5895 5894 5893 5892 5894 5894 5893 5894 5894 5894 5895 5896 5896 5897 5898 5898 5898
5885 5885 5885 5884 5884 5884 5884 5884 5884 5884 5884 5883 5883 5883 5882 5883 5883 5882 5884 5884 5883 5883 5882 5884 5884 5883 5883 5883 5884 5885 5884 5884 5884 5884 5885 5885 5885 5885 5885 5885 5884 5884 5883 5883 5883 5884 5884 5884 5885 5885 5886 5887 5889 5890 5890 5889 5889 5889 5890 5891 5891 5891 5891 5891 5891 5891 5892 5892 5892 5892 5892 5893 5893 5893 5892 5893 5894 5893 5893 5894 5894 5895 5896 5896 5896 5897 5898 5897
5882 5882 5882 5882 5882 5881 5881 5882 5881 5881 5881 5880 5880 5879 5879 5880 5879 5879 5881 5880 5880 5880 5880 5881 5881 5880 5880 5881 5882 5882 5882 5882 5882 5882 5883 5883 5883 5884 5884 5884 5883 5883 5883 5882 5882 5883 5883 5883 5884 5885 5885 5887 5889 5891 5891 5890 5890 5890 5890 5890 5891 5892 5893 5892 5891 5891 5891 5892 5893 5892 5891 5891 5892 5893 5892 5891 5893 5894 5893 5893 5894 5894 5895 5896 5896 5897 5898 5897
5880 5880 5879 5879 5879 5878 5878 5878 5878 5878 5877 5877 5877 5876 5876 5877 5876 5876 5877 5877 5877 5877 5877 5877 5878 5878 5878 5878 5879 5880 5879 5880 5880 5880 5881 5881 5882 5882 5883 5883 5883 5882 5882 5882 5881 5881 5882 5883 5883 5884 5885 5886 5888 5893 5893 5891 5890 5889 5890 5890 5891 5892 5892 5891 5890 5891 5892 5892 5892 5891 5891 5891 5891 5893 5892 5891 5891 5893 5894 5893 5894 5895 5895 5895 5896 5896 5897 5897
5877 5877 5877 5876 5876 5875 5875 5875 5875 5874 5874 5874 5874 5873 5873 5874 5873 5872 5873 5873 5873 5874 5874 5875 5875 5875 5875 5875 5876 5877 5877 5877 5878 5878 5879 5879 5880 5880 5881 5881 5881 5881 5881 5881 5880 5880 5881 5881 5883 5884 5884 5884 5887 5890 5890 5889 5888 5888 5888 5890 5891 5892 5892 5892 5891 5891 5892 5891 5891 5892 5891 5890 5890 5892 5892 5891 5892 5892 5893 5894 5894 5895 5895 5895 5896 5896 5895 5897
5873 5873 5873 5873 5873 5872 5871 5871 5871 5871 5871 5871 5870 5870 5870 5870 5870 5869 5869 5869 5870 5871 5871 5871 5871 5872 5873 5873 5873 5875 5874 5874 5875 5876 5877 5878 5878 5878 5879 5880 5880 5880 5880 5880 5879 5880 5880 5881 5885 5885 5884 5884 5885 5886 5886 5886 5887 5887 5888 5890 5891 5891 5892 5893 5892 5891 5892 5891 5891 5891 5891 5890 5889 5890 5891 5892 5892 5892 5892 5893 5893 5893 5894 5894 5895 5894 5894 5895
5870 5870 5870 5869 5870 5869 5868 5868 5867 5867 5867 5867 5867 5867 5867 5867 5866 5866 5865 5865 5867 5868 5866 5867 5869 5870 5870 5870 5871 5872 5871 5871 5873 5873 5874 5876 5875 5876 5878 5878 5878 5878 5878 5878 5878 5879 5879 5880 5883 5884 5883 5883 5883 5883 5884 5885 5885 5888 5890 5891 5890 5890 5893 5894 5892 5891 5891 5891 5890 5891 5892 5891 5889 5889 5891 5892 5892 5892 5892 5892 5892 5892 5892 5893 5894 5894 5893 5894
5868 5867 5866 5866 5866 5866 5865 5865 5864 5864 5864 5864 5864 5864 5864 5864 5863 5863 5862 5861 5863 5863 5862 5864 5866 5867 5867 5867 5868 5869 5868 5869 5871 5871 5872 5873 5873 5874 5875 5876 5877 5877 5877 5877 5877 5878 5879 5879 5880 5880 5881 5881 5882 5882 5883 5883 5884 5888 5891 5891 5890 5890 5893 5895 5893 5893 5894 5892 5890 5890 5891 5892 5891 5888 5889 5891 5892 5891 5892 5892 5892 5891 5891 5892 5893 5894 5893 5892
5865 5864 5863 5863 5864 5863 5863 5862 5861 5861 5861 5861 5861 5861 5861 5861 5860 5860 5859 5859 5859 5857 5859 5863 5863 5864 5864 5863 5864 5866 5866 5866 5867 5868 5869 5871 5871 5872 5873 5874 5875 5875 5875 5875 5875 5876 5877 5878 5878 5878 5879 5880 5880 5881 5881 5882 5884 5888 5890 5889 5890 5892 5893 5893 5893 5894 5895 5892 5890 5890 5889 5890 5891 5888 5887 5889 5890 5890 5891 5892 5891 5891 5891 5891 5892 5893 5893 5892
5863 5862 5861 5861 5861 5861 5860 5859 5858 5858 5858 5858 5858 5858 5858 5858 5858 5857 5857 5858 5855 5852 5857 5861 5861 5861 5860 5859 5862 5865 5863 5862 5865 5865 5867 5869 5868 5869 5871 5871 5873 5873 5873 5874 5874 5875 5875 5876 5876 5877 5877 5878 5879 5880 5880 5881 5883 5886 5889 5888 5890 5893 5890 5890 5891 5892 5892 5891 5891 5892 5889 5888 5889 5888 5887 5887 5888 5888 5889 5890 5890 5890 5890 5889 5890 5891 5893 5893
5861 5860 5859 5859 5859 5858 5858 5857 5856 5856 5856 5855 5855 5855 5856 5855 5855 5855 5855 5855 5853 5851 5854 5858 5857 5858 5857 5856 5860 5862 5860 5860 5863 5863 5863 5866 5866 5867 5869 5869 5871 5871 5871 5872 5873 5874 5874 5874 5874 5875 5876 5877 5877 5878 5879 5881 5882 5885 5888 5886 5886 5887 5886 5886 5888 5889 5890 5891 5892 5891 5888 5887 5887 5887 5887 5886 5885 5886 5887 5889 5889 5889 5889 5889 5888 5888 5891 5892
5859 5858 5857 5857 5856 5856 5855 5855 5854 5854 5853 5853 5853 5852 5853 5852 5852 5853 5852 5853 5852 5850 5851 5853 5854 5854 5854 5855 5857 5859 5858 5859 5861 5858 5859 5864 5864 5864 5867 5867 5868 5869 5869 5870 5871 5872 5872 5871 5872 5874 5874 5875 5876 5877 5877 5880 5882 5883 5885 5883 5882 5883 5884 5885 5886 5886 5887 5888 5889 5889 5888 5887 5887 5887 5889 5887 5884 5884 5886 5887 5887 5888 5888 5888 5888 5887 5888 5890
5857 5856 5855 5854 5854 5853 5852 5852 5852 5851 5851 5850 5850 5850 5850 5850 5850 5851 5850 5851 5851 5848 5848 5850 5850 5851 5853 5852 5853 5855 5855 5857 5858 5853 5855 5861 5862 5862 5865 5865 5866 5867 5868 5868 5869 5871 5870 5869 5871 5872 5873 5874 5875 5875 5876 5877 5879 5879 5881 5881 5882 5884 5884 5884 5884 5883 5885 5886 5886 5888 5888 5888 5886 5886 5888 5886 5883 5883 5884 5884 5886 5888 5888 5887 5887 5886 5886 5887
5856 5854 5853 5852 5851 5850 5850 5849 5849 5848 5848 5848 5848 5847 5847 5847 5847 5849 5848 5849 5849 5846 5847 5847 5846 5849 5851 5849 5850 5852 5853 5855 5855 5851 5853 5858 5859 5860 5862 5863 5863 5865 5866 5867 5867 5868 5867 5868 5869 5870 5871 5872 5873 5873 5874 5875 5876 5877 5879 5879 5882 5885 5884 5883 5883 5883 5883 5884 5884 5885 5886 5886 5885 5885 5886 5885 5881 5880 5882 5883 5885 5887 5888 5888 5886 5886 5886 5886
5854 5853 5851 5850 5849 5848 5847 5847 5846 5845 5845 5845 5845 5844 5845 5844 5846 5847 5847 5848 5848 5845 5846 5846 5844 5846 5848 5847 5848 5849 5851 5852 5851 5851 5852 5854 5855 5857 5859 5860 5860 5862 5865 5865 5865 5866 5866 5866 5867 5868 5870 5870 5871 5872 5872 5874 5875 5876 5878 5878 5881 5884 5883 5882 5882 5882 5883 5883 5884 5883 5883 5884 5885 5885 5884 5883 5881 5880 5881 5883 5884 5885 5886 5887 5886 5886 5887 5886
5852 5851 5849 5848 5847 5846 5845 5844 5843 5843 5842 5841 5842 5841 5842 5843 5844 5845 5845 5846 5847 5844 5844 5845 5844 5843 5845 5846 5846 5846 5848 5850 5848 5849 5850 5851 5852 5853 5855 5857 5858 5860 5863 5863 5864 5866 5867 5866 5865 5866 5868 5868 5869 5871 5871 5874 5876 5875 5876 5877 5880 5882 5882 5882 5883 5884 5884 5884 5883 5883 5883 5883 5884 5884 5881 5880 5881 5881 5880 5880 5882 5884 5884 5884 5885 5885 5885 5885
5850 5849 5847 5846 5845 5843 5842 5841 5840 5840 5839 5838 5838 5838 5840 5841 5841 5842 5843 5843 5845 5844 5842 5842 5842 5842 5843 5844 5845 5845 5846 5848 5847 5847 5848 5849 5850 5851 5853 5855 5856 5858 5860 5861 5863 5866 5868 5869 5867 5865 5866 5866 5868 5869 5869 5872 5876 5875 5875 5876 5878 5881 5882 5881 5883 5885 5886 5885 5883 5882 5882 5882 5883 5883 5880 5879 5879 5880 5880 5878 5879 5882 5883 5883 5883 5883 5882 5882
5848 5846 5845 5843 5842 5841 5840 5839 5838 5837 5836 5835 5835 5836 5837 5838 5838 5839 5840 5839 5840 5841 5839 5839 5840 5841 5842 5842 5843 5844 5844 5846 5846 5845 5846 5847 5848 5849 5850 5852 5854 5856 5857 5859 5863 5866 5868 5871 5869 5864 5864 5864 5865 5867 5867 5870 5875 5876 5875 5875 5877 5881 5882 5882 5884 5884 5885 5886 5885 5883 5883 5882 5882 5880 5879 5879 5879 5879 5879 5878 5878 5879 5880 5881 5882 5881 5881 5881
5845 5844 5843 5841 5840 5839 5837 5836 5835 5834 5833 5833 5833 5833 5834 5834 5835 5835 5835 5833 5834 5835 5836 5838 5839 5839 5841 5842 5843 5843 5843 5845 5844 5843 5845 5845 5845 5847 5849 5850 5851 5853 5856 5857 5861 5864 5866 5868 5867 5863 5864 5864 5863 5865 5867 5868 5871 5873 5875 5877 5877 5879 5880 5881 5884 5884 5882 5884 5884 5883 5883 5883 5882 5880 5877 5878 5879 5878 5878 5878 5878 5879 5879 5879 5880 5879 5880 5881
5843 5841 5840 5839 5837 5836 5835 5834 5832 5831 5830 5830 5830 5830 5830 5831 5831 5831 5829 5828 5831 5833 5833 5836 5837 5837 5840 5843 5844 5843 5842 5843 5843 5842 5844 5845 5845 5845 5847 5849 5850 5851 5854 5856 5858 5861 5861 5864 5865 5861 5863 5863 5860 5863 5865 5866 5868 5870 5875 5878 5878 5879 5879 5879 5881 5882 5882 5882 5882 5881 5881 5881 5881 5878 5876 5877 5877 5877 5877 5878 5878 5878 5877 5877 5878 5879 5880 5880
5840 5838 5836 5835 5834 5833 5832 5831 5830 5828 5827 5827 5827 5826 5827 5827 5826 5827 5826 5825 5828 5830 5829 5833 5835 5834 5837 5840 5842 5842 5841 5842 5843 5843 5843 5844 5845 5845 5845 5848 5850 5850 5852 5853 5856 5858 5858 5862 5863 5861 5862 5862 5859 5861 5863 5865 5867 5868 5871 5876 5878 5879 5880 5880 5879 5880 5882 5883 5882 5881 5880 5878 5877 5876 5877 5876 5875 5876 5876 5877 5877 5876 5875 5876 5879 5880 5880 5879
5836 5835 5833 5831 5830 5829 5828 5827 5826 5825 5824 5824 5823 5823 5823 5823 5823 5824 5823 5822 5824 5825 5826 5829 5832 5831 5832 5835 5837 5839 5840 5840 5841 5843 5843 5844 5845 5845 5845 5846 5849 5850 5850 5851 5854 5856 5857 5859 5861 5862 5862 5860 5858 5860 5862 5863 5866 5867 5868 5871 5875 5876 5877 5880 5879 5878 5879 5881 5881 5880 5878 5877 5875 5875 5876 5875 5875 5875 5875 5875 5874 5873 5874 5877 5878 5878 5877 5878
5832 5831 5830 5828 5826 5825 5824 5823 5822 5821 5821 5820 5820 5819 5819 5818 5819 5819 5817 5818 5821 5822 5822 5824 5826 5826 5826 5829 5832 5835 5836 5838 5839 5840 5842 5843 5844 5845 5844 5844 5846 5849 5850 5850 5851 5853 5855 5857 5860 5861 5861 5860 5859 5860 5861 5863 5866 5868 5868 5869 5872 5874 5876 5878 5879 5878 5879 5880 5880 5878 5876 5876 5875 5874 5874 5873 5874 5874 5873 5873 5873 5872 5873 5875 5875 5875 5875 5876
5827 5826 5825 5824 5822 5821 5820 5819 5818 5817 5817 5816 5815 5815 5814 5814 5815 5815 5813 5815 5817 5817 5817 5820 5822 5823 5823 5825 5828 5829 5831 5833 5836 5838 5841 5842 5843 5844 5844 5843 5845 5848 5849 5849 5849 5850 5852 5854 5857 5860 5862 5862 5861 5860 5860 5862 5865 5868 5869 5870 5871 5873 5875 5877 5879 5880 5879 5879 5879 5876 5874 5874 5873 5872 5871 5872 5873 5873 5873 5873 5873 5873 5873 5873 5873 5873 5873 5874
5823 5822 5821 5820 5818 5817 5816 5814 5814 5813 5812 5812 5811 5811 5810 5809 5810 5811 5810 5811 5812 5813 5814 5815 5818 5820 5820 5822 5825 5826 5827 5829 5831 5835 5839 5841 5842 5843 5842 5841 5844 5847 5848 5848 5849 5848 5849 5851 5853 5856 5860 5861 5861 5862 5860 5860 5862 5865 5868 5870 5871 5872 5873 5874 5877 5880 5879 5877 5876 5874 5874 5873 5871 5870 5871 5871 5872 5873 5873 5873 5872 5873 5873 5872 5872 5872 5872 5873
5820 5818 5817 5816 5814 5813 5811 5810 5809 5808 5807 5807 5807 5806 5805 5805 5805 5806 5806 5807 5808 5810 5811 5811 5813 5815 5816 5818 5821 5822 5824 5826 5827 5830 5834 5837 5839 5841 5841 5840 5841 5843 5846 5847 5848 5848 5848 5850 5851 5853 5857 5858 5860 5863 5862 5859 5860 5863 5866 5870 5872 5873 5873 5873 5875 5877 5877 5876 5873 5871 5872 5871 5869 5869 5871 5871 5871 5871 5872 5872 5872 5873 5873 5872 5872 5871 5871 5872
5816 5814 5812 5812 5811 5809 5807 5806 5805 5804 5803 5802 5802 5801 5801 5801 5801 5801 5801 5802 5804 5805 5806 5807 5808 5809 5811 5813 5816 5818 5820 5821 5823 5826 5829 5832 5835 5837 5840 5840 5839 5840 5843 5845 5846 5846 5847 5849 5849 5850 5853 5856 5859 5862 5861 5860 5860 5861 5863 5867 5869 5871 5873 5874 5875 5876 5875 5873 5870 5868 5868 5869 5869 5869 5871 5871 5870 5869 5870 5870 5870 5872 5872 5871 5870 5870 5870 5871
5813 5810 5808 5806 5806 5805 5803 5801 5800 5800 5799 5798 5797 5796 5797 5797 5797 5797 5797 5797 5799 5800 5802 5803 5803 5805 5807 5808 5811 5814 5816 5816 5819 5822 5824 5828 5831 5833 5835 5838 5838 5838 5839 5840 5842 5843 5844 5846 5847 5847 5850 5854 5857 5858 5858 5859 5860 5860 5861 5864 5866 5868 5870 5872 5875 5875 5872 5869 5868 5866 5867 5868 5868 5868 5869 5869 5870 5870 5869 5869 5868 5869 5870 5869 5869 5869 5869 5870
5810 5807 5805 5802 5801 5800 5799 5797 5796 5795 5794 5793 5792 5792 5792 5792 5793 5793 5793 5793 5794 5795 5796 5798 5799 5801 5803 5805 5808 5810 5812 5813 5815 5817 5820 5823 5827 5829 5831 5835 5837 5835 5834 5836 5838 5840 5842 5845 5846 5846 5848 5850 5851 5854 5855 5857 5860 5861 5861 5862 5864 5866 5867 5868 5871 5871 5868 5867 5867 5866 5866 5867 5867 5867 5868 5868 5868 5869 5869 5868 5867 5866 5866 5868 5869 5869 5869 5869
5807 5804 5802 5800 5797 5796 5794 5793 5792 5791 5790 5789 5788 5787 5788 5788 5788 5789 5789 5789 5789 5791 5792 5794 5795 5797 5799 5801 5802 5803 5806 5808 5810 5814 5817 5820 5822 5824 5827 5832 5833 5831 5832 5835 5835 5836 5839 5842 5844 5846 5847 5847 5848 5851 5853 5855 5857 5860 5862 5863 5863 5864 5865 5866 5868 5869 5867 5866 5866 5865 5866 5866 5865 5865 5866 5865 5866 5868 5868 5867 5865 5863 5864 5867 5869 5869 5868 5868
5804 5801 5799 5797 5794 5792 5790 5789 5787 5786 5785 5784 5783 5783 5783 5783 5784 5784 5784 5784 5785 5787 5788 5789 5791 5792 5793 5794 5795 5798 5801 5803 5805 5809 5812 5813 5816 5819 5823 5827 5829 5828 5829 5832 5832 5833 5835 5838 5840 5843 5846 5848 5848 5850 5852 5853 5855 5858 5860 5862 5863 5865 5866 5866 5867 5869 5868 5866 5864 5863 5865 5865 5863 5863 5863 5863 5864 5865 5865 5865 5864 5861 5862 5864 5866 5866 5866 5867
5800 5798 5795 5793 5790 5788 5786 5784 5782 5781 5780 5779 5779 5778 5778 5778 5779 5779 5779 5780 5781 5782 5784 5786 5787 5786 5787 5788 5790 5793 5795 5796 5800 5802 5803 5805 5808 5812 5817 5821 5823 5823 5825 5828 5830 5831 5833 5835 5838 5840 5843 5846 5847 5849 5850 5852 5853 5855 5857 5859 5862 5865 5867 5868 5869 5870 5868 5866 5864 5862 5863 5864 5862 5861 5862 5863 5863 5863 5863 5864 5863 5861 5861 5862 5863 5863 5865 5867
5798 5795 5792 5789 5786 5783 5781 5779 5778 5776 5775 5774 5774 5774 5773 5773 5773 5773 5774 5776 5778 5779 5780 5781 5782 5781 5783 5785 5787 5788 5789 5790 5793 5796 5797 5801 5805 5808 5810 5812 5813 5816 5820 5823 5827 5829 5830 5832 5836 5838 5839 5841 5844 5846 5849 5850 5852 5853 5854 5856 5860 5864 5865 5866 5868 5868 5865 5864 5863 5861 5861 5863 5861 5860 5861 5863 5862 5862 5862 5862 5862 5862 5862 5862 5861 5861 5863 5864
5793 5791 5788 5785 5782 5779 5777 5775 5773 5771 5771 5770 5770 5769 5769 5769 5769 5769 5770 5771 5773 5775 5775 5776 5777 5778 5780 5781 5781 5782 5784 5786 5790 5793 5797 5801 5804 5806 5808 5810 5811 5814 5816 5819 5823 5827 5829 5830 5832 5836 5837 5838 5841 5843 5847 5850 5850 5851 5852 5854 5858 5862 5863 5863 5865 5866 5863 5862 5863 5862 5861 5862 5860 5859 5861 5861 5860 5862 5862 5861 5860 5861 5863 5862 5860 5860 5861 5861